Home   Weather   Honolulu   Past weeks
Flag for USA

Past Weather in Honolulu, Hawaii, USA — Yesterday and Last 2 Weeks

Now
81 °F

Passing clouds.


Feels Like: 84 °F
Forecast: 85 / 75 °F
Wind: 10 mph from Northeast

Location: Honolulu International Airport

Current Time: Jul 20, 2019 at 12:13:03 am

Latest Report: Jul 19, 2019 at 10:53 pm


Visibility: 10 mi

Pressure: 30.00 "Hg

Humidity: 67%

Dew Point: 69 °F

Location of HonoluluLocation

Past Weather in Honolulu — Graph

°F

Honolulu Temperature Yesterday

Maximum temperature yesterday: 90 °F (at 1:53 pm)
Minimum temperature yesterday: 79 °F (at 3:53 am)
Average temperature yesterday: 84 °F

High & Low Weather Summary for the Past Weeks

 TemperatureHumidityPressure
High90 °F (Jul 6, 12:53 pm)91% (Jul 11, 4:53 am)30.06 "Hg (Jul 11, 4:53 am)
Low76 °F (Jul 6, 5:53 am)42% (Jul 16, 11:53 am)29.91 "Hg (Jul 5, 2:53 am)
Average84 °F63%29.99 "Hg
* Reported Jul 4 10:53 pm — Jul 19 10:53 pm, Honolulu. Weather by CustomWeather, © 2019

Note: Actual official high and low records may vary slightly from our data, if they occured in-between our weather recording intervals... More about our weather records

Advertising

Honolulu Weather History for the Previous 24 Hours

Scroll right to see more
 ConditionsComfort  
Time TempWeatherWind HumidityBarometerVisibility
10:53 pm
Fri, Jul 19
81 °FPassing clouds.10 mph67%30.00 "Hg10 mi
9:53 pm82 °FPassing clouds.10 mph65%30.00 "Hg10 mi
8:53 pm81 °FPassing clouds.16 mph65%29.99 "Hg10 mi
7:53 pm82 °FPassing clouds.15 mph63%29.98 "Hg10 mi
6:53 pm83 °FScattered clouds.12 mph63%29.96 "Hg10 mi
5:53 pm86 °FScattered clouds.18 mph57%29.95 "Hg10 mi
4:53 pm87 °FScattered clouds.18 mph55%29.94 "Hg10 mi
3:53 pm88 °FBroken clouds.22 mph54%29.94 "Hg10 mi
2:53 pm89 °FBroken clouds.24 mph52%29.95 "Hg10 mi
1:53 pm90 °FScattered clouds.21 mph50%29.96 "Hg10 mi
12:53 pm89 °FScattered clouds.21 mph50%29.98 "Hg10 mi
11:53 am88 °FScattered clouds.17 mph54%29.99 "Hg10 mi
10:53 am88 °FBroken clouds.16 mph55%30.00 "Hg10 mi
9:53 am87 °FScattered clouds.14 mph59%30.01 "Hg10 mi
8:53 am84 °FBroken clouds.13 mph67%30.00 "Hg10 mi
7:53 am83 °FBroken clouds.14 mph68%29.99 "Hg10 mi
6:53 am82 °FScattered clouds.14 mph70%29.99 "Hg10 mi
5:53 am81 °FPassing clouds.12 mph74%29.97 "Hg10 mi
4:53 am80 °FPassing clouds.9 mph76%29.97 "Hg10 mi
3:53 am79 °FPassing clouds.9 mph79%29.96 "Hg10 mi
2:53 am80 °FPartly cloudy.8 mph76%29.97 "Hg10 mi
1:53 am80 °FPartly cloudy.10 mph76%29.99 "Hg10 mi
12:53 am80 °FPartly cloudy.13 mph74%30.01 "Hg10 mi
Weather by CustomWeather, © 2019

See weather overview